This demonstration page uses our WeatherBlox Daily Observations layout. Learn more.

Left ArrowRight Arrow

39.51506, -84.39828

Hourly Observations for March 7, 2016

Temp ( °F °C ) Dew Point ( °F °C ) Humidity (%) Winds ( mph kmh ) Pressure ( in mb ) Visibility ( mi km ) Precip ( " mm )
12:15 am 00:15 Clear 43 6.1 33 0.6 68 68 S 5 7 30.12 1020 10 16 0.00 0.00
12:35 am 00:35 Clear 43 6.2 33 0.5 67 67 S 3 6 30.09 1019 10 16 0.00 0.00
12:55 am 00:55 Clear 42 5.5 34 1.3 75 75 SSW 3 6 30.09 1019 10 16 0.00 0.00
1:15 am 01:15 Clear 43 6 35 1.5 73 73 S 7 11 30.06 1018 10 16 0.00 0.00
1:35 am 01:35 Clear 47 8.2 35 1.9 65 65 WSW 6 9 30.09 1019 10 16 0.00 0.00
1:55 am 01:55 Clear 44 6.5 33 0.7 67 67 Calm 30.09 1019 10 16 0.00 0.00
2:15 am 02:15 Clear 44 6.5 33 0.5 66 66 S 5 7 30.09 1019 10 16 0.00 0.00
2:35 am 02:35 Clear 42 5.5 32 0.2 69 69 S 3 6 30.09 1019 10 16 0.00 0.00
2:55 am 02:55 Clear 42 5.6 33 0.4 70 70 Calm 30.09 1019 10 16 0.00 0.00
3:15 am 03:15 Clear 40 4.7 33 0.5 74 74 WSW 3 6 30.09 1019 10 16 0.00 0.00
3:35 am 03:35 Clear 42 5.7 34 0.9 72 72 W 3 6 30.09 1019 10 16 0.00 0.00
3:55 am 03:55 Clear 42 5.5 34 1.1 74 74 Calm 30.09 1019 10 16 0.00 0.00
4:15 am 04:15 Clear 40 4.3 33 0.6 77 77 Calm 30.12 1020 10 16 0.00 0.00
4:35 am 04:35 Clear 40 4.3 34 1.3 81 81 Calm 30.12 1020 10 16 0.00 0.00
4:55 am 04:55 Clear 39 4 34 1.2 82 82 Calm 30.12 1020 10 16 0.00 0.00
5:15 am 05:15 Clear 39 4 35 1.5 84 84 Calm 30.12 1020 10 16 0.00 0.00
5:35 am 05:35 Clear 39 4 35 1.5 84 84 Calm 30.12 1020 10 16 0.00 0.00
5:55 am 05:55 Clear 39 4 34 1.2 82 82 Calm 30.12 1020 10 16 0.00 0.00
6:15 am 06:15 Clear 39 4 35 1.4 83 83 Calm 30.12 1020 10 16 0.00 0.00
6:35 am 06:35 Clear 39 4 35 1.5 84 84 Calm 30.15 1021 10 16 0.00 0.00
6:55 am 06:55 Clear 38 3.1 33 0.7 84 84 Calm 30.15 1021 10 16 0.00 0.00
7:15 am 07:15 Sunny 38 3.1 33 0.8 85 85 Calm 30.15 1021 10 16 0.00 0.00
7:35 am 07:35 Sunny 39 4 35 1.5 84 84 Calm 30.15 1021 10 16 0.00 0.00
7:55 am 07:55 Sunny 40 4.7 36 2.2 84 84 Calm 30.12 1020 10 16 0.00 0.00
8:15 am 08:15 undefined N/A N/A N/A undefined N/A N/A N/A 0.00 0.00
8:35 am 08:35 Sunny 49 9.6 37 2.6 62 62 S 5 7 30.12 1020 10 16 0.00 0.00
8:55 am 08:55 Partly Cloudy 49 9.7 34 1.2 56 56 SSW 7 11 30.12 1020 10 16 0.00 0.00
9:15 am 09:15 Partly Cloudy 52 11 35 1.6 53 53 SSW 9 15 30.12 1020 10 16 0.00 0.00
9:35 am 09:35 Sunny 55 12.5 36 2.2 50 50 SSW 7 11 30.12 1020 10 16 0.00 0.00
9:55 am 09:55 Sunny 55 12.5 34 1 46 46 SSW 10 17 30.12 1020 10 16 0.00 0.00
10:15 am 10:15 Sunny 57 13.8 34 0.9 42 42 SSW 10 17 30.12 1020 10 16 0.00 0.00
10:35 am 10:35 Sunny 59 15.1 34 0.9 38 38 SSW 10 17 30.12 1020 10 16 0.00 0.00
10:55 am 10:55 Sunny 61 16 33 0.5 35 35 SW 10 17 30.12 1020 10 16 0.00 0.00
11:15 am 11:15 Sunny 62 16.7 30 -1.2 30 30 SW 16 26 30.09 1019 10 16 0.00 0.00
11:35 am 11:35 Sunny 62 16.7 30 -1.3 29 29 SW 20 31 30.09 1019 10 16 0.00 0.00
12:00 pm 12:00 Partly Cloudy 63 17.2 31 -0.8 30 30 SW 15 24 30.09 1019 10 16 0.00 0.00
12:15 pm 12:15 Partly Cloudy 64 17.8 31 -0.6 29 29 SW 21 33 30.09 1019 10 16 0.00 0.00
12:35 pm 12:35 Mostly Cloudy 62 16.8 31 -0.7 31 31 SW 15 24 30.09 1019 10 16 0.00 0.00
12:55 pm 12:55 Mostly Cloudy 64 17.8 32 -0.2 30 30 SW 10 17 30.09 1019 10 16 0.00 0.00
1:15 pm 13:15 Mostly Cloudy 63 17.1 31 -0.3 31 31 SSW 13 20 30.06 1018 10 16 0.00 0.00
1:35 pm 13:35 Mostly Cloudy 63 17.3 31 -0.5 30 30 SSW 10 17 30.06 1018 10 16 0.00 0.00
1:55 pm 13:55 Mostly Cloudy 64 18 30 -1.3 27 27 SSW 17 28 30.06 1018 10 16 0.00 0.00
2:15 pm 14:15 Partly Cloudy 64 18 29 -1.4 27 27 SSW 16 26 30.06 1018 10 16 0.00 0.00
2:35 pm 14:35 Partly Cloudy 67 19.5 31 -0.7 26 26 SSW 17 28 30.03 1017 10 16 0.00 0.00
2:55 pm 14:55 Mostly Cloudy 64 18 30 -1.3 27 27 SW 16 26 30.03 1017 10 16 0.00 0.00
3:15 pm 15:15 Mostly Cloudy 64 17.9 31 -0.3 29 29 SSW 13 20 30.03 1017 10 16 0.00 0.00
3:35 pm 15:35 Cloudy 63 17 29 -1.6 28 28 SSW 14 22 30.03 1017 10 16 0.00 0.00
3:55 pm 15:55 Cloudy 62 16.8 30 -1.1 30 30 SSW 13 20 30.03 1017 10 16 0.00 0.00
4:15 pm 16:15 Cloudy 62 16.7 30 -1.3 29 29 SSW 14 22 30.03 1017 10 16 0.00 0.00
4:35 pm 16:35 Cloudy 62 16.8 30 -1.1 30 30 S 10 17 30.00 1016 10 16 0.00 0.00
4:55 pm 16:55 Partly Cloudy 63 17 30 -0.9 30 30 S 12 19 30.00 1016 10 16 0.00 0.00
5:15 pm 17:15 Sunny 62 16.9 31 -0.7 30 30 S 9 15 30.00 1016 10 16 0.00 0.00
5:35 pm 17:35 Sunny 63 17 30 -1 30 30 S 10 17 30.00 1016 10 16 0.00 0.00
5:55 pm 17:55 Sunny 63 17.4 30 -1 29 29 S 12 19 30.00 1016 10 16 0.00 0.00
6:15 pm 18:15 Sunny 62 16.6 31 -0.5 31 31 S 9 15 30.00 1016 10 16 0.00 0.00
6:35 pm 18:35 Sunny 61 16.2 31 -0.4 32 32 S 9 15 30.03 1017 10 16 0.00 0.00
6:55 pm 18:55 Clear 60 15.3 32 0 35 35 S 8 13 30.06 1018 10 16 0.00 0.00
7:15 pm 19:15 Clear 58 14.2 33 0.7 40 40 SSW 5 7 30.06 1018 10 16 0.00 0.00
7:35 pm 19:35 Clear 57 13.8 33 0.4 40 40 SSW 6 9 30.06 1018 10 16 0.00 0.00
7:55 pm 19:55 Clear 55 12.6 34 1.2 46 46 SW 5 7 30.06 1018 10 16 0.00 0.00
8:15 pm 20:15 Clear 54 12.3 38 3.4 55 55 SW 3 6 30.06 1018 10 16 0.00 0.00
8:35 pm 20:35 Clear 55 12.5 38 3.1 53 53 Calm 30.06 1018 10 16 0.00 0.00
8:55 pm 20:55 Clear 59 15.2 35 1.9 41 41 S 8 13 30.06 1018 10 16 0.00 0.00
9:15 pm 21:15 Partly Cloudy 58 14.3 35 1.5 42 42 SSW 6 9 30.06 1018 10 16 0.00 0.00
9:35 pm 21:35 Clear 56 13.2 36 2.1 47 47 SSW 5 7 30.06 1018 10 16 0.00 0.00
9:55 pm 21:55 Clear 55 12.5 36 2.2 50 50 SW 3 6 30.06 1018 10 16 0.00 0.00
10:15 pm 22:15 Clear 55 12.5 35 1.8 48 48 SW 5 7 30.06 1018 10 16 0.00 0.00
10:35 pm 22:35 Clear 55 12.5 35 1.8 48 48 SW 5 7 30.06 1018 10 16 0.00 0.00
10:55 pm 22:55 Clear 52 11.3 37 2.7 56 56 SSW 3 6 30.06 1018 10 16 0.00 0.00
11:15 pm 23:15 Clear 55 12.5 36 2.2 50 50 Calm 30.06 1018 10 16 0.00 0.00
11:35 pm 23:35 Clear 52 11.3 37 2.9 57 57 Calm 30.06 1018 10 16 0.00 0.00
11:55 pm 23:55 Clear 50 10.1 37 2.7 60 60 Calm 30.06 1018 10 16 0.00 0.00

Powered by AerisWeather